Location: LDNL
(36.4545°S, 141.6685°E)
Time: 02:19:48
(UTC+10:00)

Courier 1B Rocket - Pass Details

Date: 20 August 2022
Orbit: 920 x 1202 km, 28.2° (Epoch: 26 September)

Event Time Altitude Azimuth Distance (km) Brightness Sun altitude
Exits shadow 06:21:31 10° 284° (WNW) 3,169 7.1 -10.5°
Reaches altitude 10° 06:21:37 10° 285° (WNW) 3,142 7.1 -10.5°
Maximum altitude 06:27:54 27° 338° (NNW) 2,126 6.7 -9.2°
Drops below altitude 10° 06:34:04 10° 32° (NNE) 3,069 8.2 -8.0°
Sets 06:37:19 0° 43° (NE) 3,991 9.2 -7.3°
